Wind_Speed
19 19 18 16 18 18 18 19 20 20 19 21 22 22 22 21 21 22 22 22 21 21 21 20 20 21 23 23 23 24 23 23 23 23 23 23 23 23 23 23 24 24 24
19 19 19 19 18 19 20 19 20 20 21 21 22 22 22 21 21 21 21 20 20 20 20 20 20 21 22 23 23 24 24 22 23 24 24 23 23 24 24 23 23 23 23
20 19 18 19 19 20 20 20 21 21 21 22 22 22 22 22 21 20 20 20 20 20 20 20 21 21 22 22 22 23 22 22 22 23 23 24 24 24 24 24 23 22 22
18 18 19 20 19 20 21 21 21 21 22 22 23 23 22 22 22 21 21 20 20 20 21 21 22 22 21 21 22 22 22 22 23 24 24 24 24 23 23 23 22 22 21
20 19 19 20 20 21 21 22 21 22 22 23 23 23 23 23 23 23 23 21 21 22 22 22 21 21 21 22 22 22 22 22 22 23 23 23 23 22 22 22 22 22 22
21 20 20 20 19 20 21 21 22 22 23 23 24 24 25 25 25 24 23 23 23 22 22 22 21 22 22 22 21 22 22 22 22 22 22 23 23 22 22 22 22 22 21
23 22 21 20 19 19 20 21 21 23 24 24 26 26 26 25 25 24 24 23 23 21 21 20 20 21 22 22 22 22 22 22 22 22 22 23 22 22 22 22 22 22 22
24 23 22 21 20 20 20 21 22 23 25 25 26 26 26 26 25 25 24 24 23 22 21 20 20 20 20 20 21 22 22 23 23 23 23 23 23 23 22 22 22 22 22
24 24 24 22 22 21 21 22 23 24 25 25 26 27 26 26 25 25 25 24 24 23 22 22 21 21 21 20 20 21 22 23 24 24 24 24 24 24 24 23 23 23 22
24 24 23 22 22 21 22 22 23 24 25 26 26 26 25 25 24 24 24 24 24 23 22 21 20 20 20 21 21 21 22 23 23 24 24 25 25 25 25 24 24 24 23
21 22 22 22 21 21 21 23 24 24 25 26 26 25 25 24 24 24 24 24 23 22 22 21 20 21 21 22 21 21 21 21 22 23 24 24 25 25 25 25 24 24 24
19 18 20 21 22 22 22 23 23 24 25 25 25 25 25 25 25 24 24 24 23 22 21 21 21 21 22 22 21 21 21 21 21 22 22 23 23 23 23 23 24 24 24
19 20 21 22 22 22 23 23 23 24 24 24 24 24 25 25 24 24 24 23 23 22 21 21 21 21 21 21 20 20 20 21 21 21 22 22 22 22 22 22 22 23 23
19 19 20 21 21 21 22 22 23 23 24 24 24 24 24 24 23 23 23 22 22 21 21 21 21 21 20 20 19 19 19 19 19 19 20 21 21 21 21 21 21 21 22
20 19 19 20 21 22 22 23 23 24 24 25 25 25 24 23 23 23 22 21 20 20 20 20 21 20 20 19 18 18 18 18 18 18 18 18 19 19 20 20 20 20 20
21 20 20 21 21 21 22 22 23 23 23 23 23 23 23 22 22 21 21 21 21 21 21 20 20 20 19 18 18 17 17 18 17 17 17 17 17 17 18 18 18 18 18
20 20 20 20 20 21 22 21 21 21 21 22 21 22 22 21 20 21 21 21 20 20 20 20 20 19 19 18 17 17 17 16 15 14 14 14 15 15 15 15 16 17 17
20 19 19 20 20 21 20 19 19 19 19 19 20 20 20 19 19 19 19 19 19 19 19 19 19 18 17 17 16 15 14 13 13 13 12 12 13 13 13 14 13 14 14
18 18 18 18 19 19 19 19 18 18 18 18 18 18 18 17 17 17 16 16 17 17 17 16 16 15 14 14 13 13 13 12 12 11 11 11 11 11 11 11 11 11 11
17 17 16 16 17 18 18 18 18 18 17 17 17 17 16 16 15 14 14 14 14 13 13 13 12 12 11 11 11 11 11 11 10 10 10 9 10 10 10 9 9 9 9
15 14 14 15 15 16 16 16 16 16 15 14 14 14 13 13 12 12 13 12 11 10 10 9 9 9 9 9 9 9 9 9 8 8 8 8 8 8 8 8 8 8 8
12 12 13 13 14 14 15 15 15 14 13 12 12 11 11 11 10 11 10 10 9 8 7 7 7 7 7 7 7 7 8 8 7 7 7 8 7 7 7 7 7 8 8
10 11 12 12 12 12 13 13 13 12 11 11 10 9 9 9 9 8 8 7 7 7 7 6 6 6 6 5 6 6 6 6 7 6 6 7 6 6 7 7 8 8 8
9 10 10 11 11 10 11 11 10 10 9 9 9 8 8 8 7 6 5 5 6 6 6 5 5 5 5 5 5 4 4 4 5 7 7 6 6 7 7 8 8 8 8
9 9 9 9 9 9 9 9 9 9 8 7 7 6 6 5 5 4 3 3 4 4 4 4 5 5 5 4 4 4 4 5 5 6 6 6 8 8 8 8 8 8 7
8 8 8 8 8 8 8 9 8 7 7 6 5 5 5 4 3 3 3 3 2 1 2 3 4 4 4 4 4 5 5 5 6 6 7 7 8 8 9 8 8 8 8
Wind_Direction
276 275 274 270 270 273 273 275 276 277 280 286 288 289 290 289 288 288 288 287 284 282 277 273 266 265 264 264 262 260 261 263 262 260 258 256 257 260 261 259 260 263 263
279 276 273 276 272 273 273 275 278 280 281 286 287 288 288 288 287 288 285 285 283 281 281 276 270 267 265 264 262 260 259 263 262 258 257 255 256 258 261 262 263 263 262
278 276 275 277 273 271 272 276 277 279 283 286 287 287 287 287 287 288 288 286 285 280 279 280 272 267 266 265 264 262 259 261 261 257 256 256 257 258 260 260 261 262 261
281 285 283 278 273 270 272 274 274 278 282 285 287 286 287 287 288 290 289 284 283 283 280 280 277 270 267 267 265 262 261 262 262 259 257 257 257 256 257 259 259 260 261
286 286 285 279 276 277 272 272 273 276 279 283 285 285 286 285 286 287 286 285 283 283 281 282 277 270 268 268 266 263 263 263 261 258 256 256 256 256 256 257 259 261 261
282 280 281 280 279 279 276 273 275 277 279 283 285 286 285 285 285 285 284 285 284 282 283 283 273 269 268 268 266 264 264 262 261 258 256 256 255 256 258 259 259 261 262
277 279 278 279 282 281 278 275 275 277 280 282 284 286 286 284 283 281 283 284 283 282 282 282 274 267 264 264 266 264 263 262 260 258 258 259 258 259 261 262 261 261 262
278 280 281 283 281 281 279 278 277 280 282 284 284 285 285 283 280 280 282 283 283 282 280 281 277 270 266 265 263 263 263 261 258 258 258 259 259 260 262 263 263 262 261
278 279 283 280 280 281 281 280 280 282 284 286 287 286 283 282 281 280 281 282 282 280 278 278 276 271 270 270 268 264 264 264 262 261 260 259 259 259 259 260 261 261 261
275 277 280 280 280 281 282 281 282 283 285 285 286 284 284 284 282 281 280 281 280 279 278 277 273 270 269 269 269 268 265 263 262 262 261 259 258 257 257 258 259 259 259
277 279 279 280 280 281 283 284 282 283 284 286 285 285 286 286 284 283 282 281 279 278 276 274 272 271 270 269 269 270 269 265 262 261 260 258 258 257 258 257 257 258 258
285 283 278 278 281 282 283 285 286 285 285 285 285 285 285 286 284 282 281 280 278 276 274 273 272 272 271 270 270 269 269 269 266 264 262 260 259 258 257 257 258 257 256
284 281 280 282 284 283 284 285 287 287 287 287 287 287 286 285 283 282 280 279 276 274 273 272 273 273 272 271 269 269 270 271 270 267 264 260 259 258 257 258 259 258 256
288 283 281 283 284 284 284 285 287 288 288 289 288 287 286 284 283 282 280 278 275 274 274 273 272 272 271 269 270 271 272 273 272 271 268 264 261 259 258 258 258 257 255
289 287 285 285 285 284 285 286 288 288 288 289 287 286 285 284 282 281 279 277 275 274 274 273 271 271 271 271 270 271 272 271 273 272 270 265 260 257 256 255 253 253 251
291 290 289 287 285 287 288 290 290 288 288 289 288 286 286 284 281 278 277 276 275 273 271 272 269 268 269 270 270 269 270 270 271 270 266 262 258 256 253 251 249 247 245
291 291 290 291 290 292 297 293 292 289 288 289 288 288 287 284 280 278 278 279 278 274 273 270 268 267 266 267 268 266 271 270 269 267 264 259 254 251 250 246 245 244 245
293 292 291 293 295 297 300 297 295 291 290 290 290 289 289 284 279 278 279 280 278 277 275 271 267 264 263 264 263 264 264 266 267 264 260 258 252 250 249 248 245 243 244
295 293 292 296 298 298 300 300 297 295 293 292 292 292 291 286 281 280 281 281 279 277 275 271 265 265 264 261 258 260 260 262 262 258 257 256 250 245 244 242 239 241 239
296 295 296 298 299 299 300 299 297 295 296 296 293 293 292 288 284 282 282 284 283 277 271 266 260 259 261 258 257 259 261 261 260 255 252 251 246 242 239 237 235 230 225
296 296 297 298 298 299 300 299 298 297 296 298 298 296 294 290 287 284 283 284 282 275 268 259 253 253 254 255 255 256 255 258 257 252 245 241 234 230 230 229 224 214 209
298 299 302 304 304 302 303 302 300 298 296 297 299 297 294 294 292 289 285 284 276 270 262 255 250 248 248 252 251 250 250 249 245 244 239 234 227 222 219 214 204 200 197
307 307 311 311 309 308 308 308 308 305 301 299 302 299 296 297 297 294 287 278 267 264 255 247 244 239 241 243 238 238 235 234 227 226 223 221 219 214 208 203 196 192 189
318 318 321 319 317 318 319 316 315 313 310 305 306 308 304 305 305 298 286 270 262 259 251 242 235 232 226 223 219 214 210 209 209 206 207 206 199 193 189 184 184 184 182
327 326 328 331 331 330 329 330 329 326 324 319 317 316 313 309 310 306 296 285 270 254 241 229 220 216 214 209 210 204 197 189 186 182 183 186 182 175 173 175 176 177 177
339 343 346 346 345 343 342 343 346 346 344 345 341 336 334 328 323 314 310 305 289 234 211 196 191 199 198 193 188 173 169 167 165 163 159 158 161 166 167 164 162 161 162
Height
5861 5861 5860 5859 5860 5860 5860 5859 5859 5857 5856 5856 5855 5854 5853 5852 5850 5848 5846 5844 5843 5842 5841 5840 5840 5840 5841 5841 5842 5843 5844 5844 5845 5845 5845 5846 5846 5846 5846 5846 5847 5847 5847
5857 5856 5856 5856 5856 5856 5855 5854 5854 5853 5852 5851 5850 5849 5848 5847 5846 5843 5841 5839 5838 5836 5836 5835 5835 5835 5836 5836 5836 5837 5838 5838 5838 5839 5839 5840 5841 5841 5841 5841 5841 5841 5841
5852 5852 5852 5852 5851 5851 5850 5850 5849 5848 5847 5846 5845 5844 5843 5841 5840 5839 5836 5835 5833 5831 5831 5830 5830 5830 5830 5830 5830 5831 5831 5832 5832 5833 5834 5834 5835 5835 5836 5835 5835 5835 5835
5848 5848 5847 5847 5846 5846 5845 5845 5844 5843 5843 5841 5840 5839 5837 5836 5835 5833 5832 5830 5828 5827 5826 5824 5824 5824 5824 5824 5824 5825 5825 5825 5826 5826 5827 5828 5828 5829 5829 5829 5829 5829 5829
5844 5843 5843 5842 5841 5840 5840 5839 5839 5838 5837 5836 5835 5833 5832 5830 5829 5828 5827 5825 5823 5822 5820 5818 5817 5817 5817 5818 5818 5818 5818 5819 5819 5820 5820 5821 5821 5822 5823 5823 5823 5823 5823
5839 5839 5838 5837 5836 5835 5834 5834 5833 5832 5831 5830 5829 5827 5826 5824 5823 5822 5820 5819 5817 5816 5814 5811 5810 5811 5811 5811 5811 5811 5812 5812 5813 5813 5813 5814 5815 5815 5816 5816 5817 5817 5817
5834 5834 5832 5831 5831 5830 5829 5828 5828 5827 5825 5824 5823 5821 5820 5818 5816 5815 5813 5812 5811 5809 5808 5806 5804 5804 5804 5804 5804 5804 5805 5805 5806 5806 5807 5807 5808 5808 5809 5809 5810 5810 5810
5828 5828 5827 5826 5826 5825 5824 5823 5822 5820 5819 5818 5816 5814 5813 5811 5810 5808 5807 5806 5804 5803 5801 5800 5799 5798 5798 5798 5798 5798 5798 5799 5799 5799 5800 5800 5801 5801 5802 5802 5803 5803 5804
5823 5822 5822 5821 5820 5818 5818 5817 5815 5814 5812 5811 5809 5807 5806 5804 5802 5801 5800 5798 5797 5796 5795 5794 5793 5792 5791 5791 5791 5791 5791 5791 5791 5792 5792 5793 5793 5794 5794 5795 5796 5796 5797
5816 5815 5815 5814 5813 5812 5811 5810 5809 5807 5806 5804 5802 5800 5798 5797 5795 5794 5792 5791 5790 5789 5787 5787 5786 5785 5785 5785 5784 5784 5783 5784 5784 5784 5784 5785 5785 5786 5787 5787 5788 5788 5790
5809 5808 5808 5807 5806 5805 5805 5804 5802 5800 5799 5797 5795 5793 5791 5790 5788 5787 5785 5784 5783 5782 5781 5780 5779 5779 5778 5778 5777 5777 5776 5776 5776 5776 5776 5777 5777 5778 5778 5779 5780 5781 5782
5804 5803 5802 5802 5800 5799 5798 5796 5795 5793 5791 5789 5788 5786 5784 5782 5781 5779 5778 5777 5776 5775 5775 5773 5773 5772 5771 5770 5770 5770 5769 5769 5769 5769 5769 5769 5769 5770 5771 5772 5772 5773 5774
5797 5797 5796 5795 5794 5792 5791 5789 5787 5786 5784 5782 5780 5778 5777 5775 5773 5772 5770 5769 5769 5768 5768 5767 5766 5765 5764 5764 5763 5763 5763 5762 5762 5761 5761 5761 5762 5762 5763 5764 5765 5766 5767
5792 5791 5790 5789 5788 5786 5784 5783 5781 5779 5777 5775 5773 5771 5769 5767 5766 5764 5763 5763 5762 5761 5761 5760 5759 5759 5758 5757 5757 5757 5756 5755 5755 5754 5754 5753 5754 5755 5756 5757 5758 5759 5760
5787 5786 5784 5783 5782 5780 5778 5776 5774 5771 5769 5767 5765 5763 5762 5760 5758 5757 5757 5756 5755 5754 5754 5753 5753 5752 5751 5751 5750 5750 5750 5749 5748 5748 5747 5747 5747 5748 5749 5750 5751 5753 5754
5782 5781 5779 5777 5776 5774 5772 5769 5767 5764 5762 5760 5758 5756 5754 5753 5751 5750 5750 5749 5748 5748 5747 5746 5746 5745 5745 5745 5744 5744 5743 5743 5742 5741 5741 5741 5741 5742 5743 5744 5745 5747 5749
5775 5774 5773 5771 5769 5767 5765 5762 5759 5757 5755 5753 5751 5749 5747 5746 5745 5744 5743 5742 5741 5741 5740 5740 5739 5739 5739 5739 5738 5738 5737 5737 5736 5735 5735 5735 5736 5737 5738 5739 5740 5742 5743
5769 5768 5766 5764 5763 5760 5758 5756 5753 5751 5749 5747 5745 5743 5741 5739 5738 5737 5736 5735 5735 5734 5734 5733 5733 5733 5733 5733 5732 5732 5732 5732 5731 5731 5731 5731 5732 5733 5733 5735 5736 5737 5739
5763 5762 5760 5758 5756 5754 5752 5750 5748 5746 5743 5741 5739 5737 5735 5734 5733 5731 5731 5729 5729 5728 5728 5727 5727 5727 5727 5727 5727 5727 5728 5728 5727 5727 5727 5728 5728 5729 5730 5731 5733 5734 5735
5757 5756 5754 5752 5751 5749 5747 5745 5743 5740 5738 5736 5734 5732 5730 5728 5727 5726 5726 5725 5724 5723 5722 5722 5722 5722 5723 5723 5723 5723 5724 5724 5724 5724 5724 5725 5726 5726 5728 5729 5730 5731 5733
5753 5751 5749 5748 5746 5744 5742 5740 5737 5735 5733 5731 5729 5727 5725 5724 5723 5722 5721 5720 5720 5719 5719 5718 5719 5719 5719 5720 5720 5720 5721 5721 5722 5722 5722 5723 5724 5725 5726 5727 5728 5730 5731
5748 5747 5745 5743 5742 5740 5738 5735 5733 5731 5729 5727 5725 5723 5722 5721 5719 5718 5717 5717 5716 5716 5716 5716 5716 5717 5717 5717 5717 5718 5718 5719 5719 5720 5721 5722 5723 5724 5725 5726 5727 5728 5730
5745 5744 5742 5740 5738 5736 5734 5732 5729 5727 5725 5723 5722 5720 5719 5718 5717 5716 5715 5714 5714 5714 5714 5714 5714 5715 5715 5715 5716 5716 5717 5717 5718 5719 5720 5721 5722 5723 5724 5725 5727 5728 5730
5742 5741 5739 5737 5735 5733 5731 5729 5726 5724 5722 5721 5719 5718 5717 5716 5715 5713 5713 5712 5712 5712 5712 5712 5712 5713 5713 5714 5714 5715 5715 5716 5717 5718 5719 5721 5722 5723 5724 5725 5727 5728 5730
5740 5738 5737 5735 5733 5731 5729 5727 5725 5723 5721 5719 5718 5716 5715 5714 5713 5712 5711 5711 5710 5710 5710 5711 5711 5712 5712 5713 5714 5714 5715 5716 5717 5718 5719 5720 5722 5723 5725 5726 5727 5729 5730
5739 5737 5735 5733 5731 5729 5727 5725 5723 5722 5720 5718 5717 5715 5714 5713 5712 5711 5711 5710 5710 5710 5709 5709 5710 5711 5712 5713 5714 5714 5715 5716 5718 5719 5720 5721 5722 5724 5725 5726 5728 5729 5731